Malmstrom AFB, MT

7:07 PM MDT on April 25, 2017 (GMT -0600)
Malmstrom AFB

Weather History for KGFA - January, 2013

Change the Weather History Date:

Wednesday, January 9, 2013

  Actual Average (KGTF) Record (KGTF)
Temperature  
Mean Temperature 47 °F -  
Max Temperature 53 °F 24 °F 63 °F (1933)
Min Temperature 41 °F 7 °F -27 °F (1909)
Degree Days  
Heating Degree Days 18    
Moisture  
Dew Point 24 °F    
Average Humidity 44    
Maximum Humidity 57    
Minimum Humidity 30    
Precipitation  
Precipitation 0.00 in - - ()
Sea Level Pressure  
Sea Level Pressure 29.79 in    
Wind  
Wind Speed 20 mph (SSW)    
Max Wind Speed 34 mph    
Max Gust Speed 46 mph    
Visibility 10 miles    
Events      
Averages and records for this station are not official NWS values.
T = Trace of Precipitation, MM = Missing Value Source: NWS Daily Summary

Daily Weather History Graph

Daily Weather History Graph

Search for Another Location

Airport or City:

Trip Planner

Search our weather history database for the weather conditions in past years. The results will help you decide how hot, cold, wet, or windy it might be!

Date:

Astronomy

Jan. 09, 2013 Rise Set
Actual Time 8:10 AM MST 4:53 PM MST
Civil Twilight 7:35 AM MST 5:28 PM MST
Nautical Twilight 6:57 AM MST 6:07 PM MST
Astronomical Twilight 6:20 AM MST 6:44 PM MST
Moon 5:54 AM MST (1/9) 2:58 PM MST (1/9)
Length of Visible Light 9h 53m
Length of Day
8h 42m
Waning Crescent, 6% of the Moon is Illuminated
Jan 9
Waning Crescent
Jan 11
New
Jan 18
First Quarter
Jan 26
Full
Feb 3
Last Quarter

Hourly Weather History & Observations

Time (MST) Temp. Windchill Dew Point Humidity Pressure Visibility Wind Dir Wind Speed Gust Speed Precip Events Conditions
12:56 AM 41.0 °F 32.2 °F 26.1 °F 55% 29.90 in 10.0 mi South 18.4 mph - N/A   Clear
1:56 AM 41.0 °F 32.8 °F 27.0 °F 57% 29.91 in 10.0 mi SSW 16.1 mph - N/A   Clear
2:56 AM 43.0 °F 35.1 °F 27.0 °F 53% 29.89 in 10.0 mi South 17.3 mph - N/A   Clear
3:56 AM 43.0 °F 34.8 °F 26.1 °F 51% 29.88 in 10.0 mi South 18.4 mph - N/A   Clear
4:56 AM 46.0 °F 37.0 °F 25.0 °F 44% 29.86 in 10.0 mi South 27.6 mph - N/A   Clear
5:56 AM 46.0 °F 36.1 °F 25.0 °F 44% 29.85 in 10.0 mi SSW 34.5 mph 41.4 mph N/A   Clear
6:56 AM 45.0 °F 36.4 °F 25.0 °F 46% 29.89 in 10.0 mi SSW 23.0 mph 31.1 mph N/A   Clear
7:56 AM 43.0 °F 33.8 °F 25.0 °F 49% 29.91 in 10.0 mi SSW 23.0 mph 34.5 mph N/A   Clear
8:56 AM 44.1 °F 35.2 °F 23.0 °F 43% 29.92 in 10.0 mi South 23.0 mph 29.9 mph N/A   Clear
9:56 AM 45.0 °F 36.2 °F 24.1 °F 44% 29.91 in 10.0 mi South 24.2 mph 33.4 mph N/A   Mostly Cloudy
10:56 AM 46.9 °F - 24.1 °F 41% 29.86 in 10.0 mi SSW 15.0 mph - N/A   Clear
11:56 AM 52.0 °F - 21.9 °F 31% 29.81 in 10.0 mi South 24.2 mph 31.1 mph N/A   Clear
12:56 PM 52.0 °F - 21.9 °F 31% 29.75 in 10.0 mi SSW 17.3 mph - N/A   Clear
1:56 PM 53.1 °F - 21.9 °F 30% 29.71 in 10.0 mi South 33.4 mph 46.0 mph N/A   Clear
2:56 PM 51.1 °F - 24.1 °F 35% 29.74 in 10.0 mi South 21.9 mph 35.7 mph N/A   Clear
3:56 PM 48.9 °F - 24.1 °F 38% 29.75 in 10.0 mi SW 11.5 mph 20.7 mph N/A   Clear
4:56 PM 46.0 °F 43.9 °F 24.1 °F 42% 29.73 in 10.0 mi SSW 4.6 mph - N/A   Overcast
5:56 PM 45.0 °F 37.9 °F 24.1 °F 44% 29.71 in 10.0 mi South 16.1 mph - N/A   Clear
6:56 PM 45.0 °F 38.2 °F 24.1 °F 44% 29.70 in 10.0 mi South 15.0 mph - N/A   Clear
7:56 PM 44.1 °F 36.5 °F 24.1 °F 45% 29.70 in 10.0 mi SSW 17.3 mph - N/A   Clear
8:56 PM 45.0 °F 37.1 °F 24.1 °F 44% 29.68 in 10.0 mi SSW 19.6 mph - N/A   Clear
9:56 PM 43.0 °F 35.4 °F 24.1 °F 47% 29.68 in 10.0 mi South 16.1 mph - N/A   Clear
10:56 PM 44.1 °F 37.4 °F 23.0 °F 43% 29.65 in 10.0 mi South 13.8 mph - N/A   Clear
11:56 PM 41.0 °F 34.7 °F 23.0 °F 49% 29.63 in 10.0 mi South 10.4 mph - N/A   Clear